Theta_e
290 291 291 291 292 293 295 301 318 319 318 314 311 310 309 309 309 309 308 307 304 302 300 298 296 295 293 291 291 291 290 291 292 292 291 291 291 290 290 290 290 290 290
288 289 289 289 290 290 292 295 300 318 317 315 311 310 308 308 307 307 306 305 302 301 299 297 295 294 291 291 291 291 290 290 290 290 289 287 289 290 290 289 290 288 290
286 287 288 288 289 289 290 293 295 311 315 310 307 305 304 303 302 302 301 301 301 300 298 297 296 294 291 290 289 289 290 288 288 288 290 286 286 287 288 287 288 288 287
286 286 286 287 287 288 290 292 297 311 310 308 307 305 304 300 302 301 299 299 300 299 298 297 295 294 292 290 290 290 289 289 287 288 290 288 288 286 284 286 286 287 287
284 285 285 286 287 288 289 291 293 296 303 307 306 305 303 303 301 300 299 299 299 299 298 296 295 293 292 291 290 288 288 289 288 287 286 286 286 286 285 281 283 285 285
283 285 285 286 286 287 288 290 291 292 294 299 304 303 302 300 299 298 298 297 297 296 297 296 295 293 291 290 289 289 288 288 288 288 287 287 286 285 284 282 281 282 283
281 283 283 283 284 285 286 288 289 289 290 292 295 299 301 300 299 298 298 296 296 295 294 294 293 292 290 290 289 289 289 288 287 287 287 287 287 286 285 284 280 280 279
280 282 283 282 282 284 285 286 287 288 289 290 290 293 296 299 299 298 298 297 298 298 297 295 293 291 291 289 289 288 288 288 287 287 286 286 286 287 286 284 282 277 275
280 281 282 281 281 282 283 284 285 286 288 289 289 289 291 293 295 297 297 298 298 297 295 294 292 291 291 289 288 287 287 288 287 287 286 286 286 286 286 285 284 284 277
280 281 282 281 281 281 282 284 284 285 286 287 288 289 288 289 292 295 295 295 295 295 294 293 292 291 290 289 288 287 287 287 286 287 286 286 286 286 286 286 285 284 282
279 280 281 281 280 280 281 282 283 283 284 286 287 287 287 287 289 290 291 294 293 292 292 292 291 290 289 288 288 287 287 286 286 287 287 286 287 286 286 286 286 285 283
279 280 281 281 280 279 280 280 281 282 284 284 285 285 286 286 285 286 287 289 290 290 291 291 291 290 290 289 288 287 287 286 286 286 286 286 288 286 286 286 285 284 284
280 281 281 281 280 280 280 280 281 281 282 283 284 284 284 284 284 284 285 285 286 286 288 290 290 289 289 289 288 287 287 286 286 287 286 286 286 285 284 285 284 283 284
279 279 279 280 279 280 280 279 280 281 281 281 281 281 282 283 283 283 283 283 283 284 286 287 288 288 287 287 287 287 286 286 286 286 286 286 286 285 285 284 283 283 281
278 278 278 278 279 278 277 276 276 279 280 279 277 276 279 280 280 281 281 281 281 283 283 285 285 286 287 287 286 286 286 285 284 285 286 286 286 287 287 284 282 283 281
274 275 276 277 280 279 276 272 271 274 278 273 271 272 274 276 278 282 283 279 279 279 279 283 285 285 287 289 289 288 286 285 285 284 284 285 284 288 290 289 288 285 282
273 274 273 273 277 278 277 272 270 271 269 269 269 270 269 272 274 278 282 284 281 281 280 281 281 285 286 290 290 289 286 285 285 285 284 285 286 286 286 288 288 287 287
274 274 274 273 274 276 272 270 269 268 266 267 268 268 270 270 272 275 278 281 283 284 283 282 282 284 285 290 291 288 285 285 284 284 285 286 285 285 285 284 284 284 285
275 274 275 271 270 272 273 268 267 264 263 270 268 270 270 270 273 276 274 278 283 285 284 284 282 283 284 290 291 288 284 283 282 282 283 284 282 285 287 283 281 283 283
274 273 271 263 264 270 265 269 271 266 267 271 272 272 273 269 270 271 275 276 280 285 285 285 284 283 285 289 291 288 285 283 282 280 280 283 283 286 287 280 280 279 281
272 269 264 269 271 268 269 271 271 270 274 273 271 271 273 274 272 273 275 276 278 284 285 284 285 284 284 285 291 290 285 285 283 282 280 282 286 287 288 284 280 279 279
273 270 269 269 272 267 272 272 273 275 272 274 274 273 273 275 276 275 275 276 278 282 284 283 283 284 283 285 290 291 289 288 283 282 282 281 287 287 288 285 284 284 280
277 274 273 274 274 271 273 275 276 274 273 273 272 271 272 275 275 274 275 276 279 282 283 282 282 282 283 283 288 290 290 288 283 283 283 284 287 287 287 286 285 279 276
276 275 272 273 274 275 275 276 276 274 272 271 271 271 272 273 273 275 276 276 279 281 283 283 282 282 281 282 284 287 289 286 285 284 283 284 286 286 283 284 284 276 276
272 270 270 272 274 276 272 270 272 271 271 270 271 271 272 271 272 274 275 277 279 282 283 284 284 283 281 282 285 287 287 286 284 280 281 281 281 280 278 280 276 274 273
267 266 267 268 269 270 269 267 267 267 267 270 270 270 270 270 271 271 272 278 280 282 285 288 287 285 287 286 286 288 289 288 285 278 277 278 279 280 280 281 278 275 274
Wind_Speed
9 10 12 12 14 14 12 11 5 2 4 2 3 3 3 3 3 4 6 8 4 8 7 4 5 3 4 4 4 3 5 3 3 4 3 4 4 5 4 3 4 5 5
14 14 14 14 13 13 13 12 10 2 4 3 3 2 3 2 2 4 4 5 5 6 6 6 6 5 4 5 4 4 3 2 2 3 3 2 1 2 3 3 4 5 4
13 14 15 14 13 14 14 12 11 6 3 6 5 4 4 3 3 2 3 4 4 5 5 3 4 5 4 4 4 4 4 3 1 1 3 3 3 2 1 3 3 4 3
11 12 14 15 14 13 12 13 14 4 3 5 5 5 3 4 2 3 5 5 6 4 4 4 3 4 3 4 3 3 3 3 4 1 1 2 3 4 2 1 2 3 3
10 12 12 12 12 13 12 12 13 15 11 4 3 2 2 2 2 5 8 6 4 4 4 5 4 4 3 4 5 4 4 3 3 3 3 1 1 2 3 2 1 2 1
8 8 9 10 12 12 13 13 14 14 14 12 5 1 1 3 3 4 5 4 3 3 4 6 3 4 4 5 4 4 4 4 3 3 3 3 3 4 3 3 2 2 0
7 8 10 11 11 14 14 12 14 14 13 12 11 9 4 4 5 5 5 7 5 3 5 3 5 3 5 5 5 4 4 4 3 4 3 2 2 3 3 3 2 3 1
6 7 7 8 9 10 11 12 13 12 12 11 11 10 10 3 3 4 4 5 6 7 8 8 7 7 6 5 5 3 3 3 3 5 3 3 2 3 3 4 5 3 2
7 7 7 7 7 8 9 9 9 10 11 11 9 9 9 9 5 4 4 4 6 5 8 8 7 7 6 6 6 4 5 4 4 4 4 3 2 2 3 3 3 5 4
6 6 6 7 6 6 6 7 7 7 6 8 9 8 8 8 7 5 5 5 5 6 7 8 8 8 6 6 6 4 4 5 3 3 5 4 3 3 3 3 3 2 3
5 5 6 6 6 6 6 6 7 7 9 8 7 8 9 9 9 6 5 4 3 6 6 8 9 8 8 7 6 6 6 6 5 4 5 5 5 3 3 3 3 2 2
5 5 6 6 6 6 6 6 6 6 6 6 6 6 7 8 8 8 7 5 6 5 6 6 7 8 9 9 9 8 8 7 7 7 6 6 4 5 4 3 4 3 2
6 6 6 5 5 5 5 5 5 5 5 7 7 8 7 7 9 8 8 6 5 5 5 7 8 9 9 10 9 9 8 8 7 7 7 6 6 5 3 3 4 3 2
7 6 7 6 6 5 4 5 5 5 5 6 7 8 8 7 7 9 7 7 4 4 5 6 6 7 9 8 8 8 8 7 6 6 6 6 6 6 6 4 5 4 4
8 7 8 6 7 7 6 5 5 5 4 5 5 6 7 5 4 7 7 6 6 4 4 5 5 6 8 8 10 9 9 8 6 5 6 6 6 8 7 4 4 5 3
10 10 9 8 9 8 7 5 5 5 2 3 5 6 7 6 6 8 9 6 5 5 3 6 7 8 7 14 18 13 9 8 9 8 5 6 6 8 10 8 9 7 5
11 11 11 10 9 9 7 6 6 3 4 4 4 5 4 6 5 6 9 9 6 3 5 5 5 8 8 16 19 17 9 9 8 8 8 6 4 6 5 9 9 8 7
14 13 11 9 9 7 6 4 4 4 4 5 5 4 4 4 5 6 7 9 5 5 5 5 6 6 7 16 19 18 9 8 8 8 9 9 7 6 7 7 6 6 5
14 13 11 8 6 8 7 5 4 4 3 6 5 5 4 4 4 8 8 9 10 6 6 4 7 8 7 17 19 18 9 8 8 7 8 10 9 13 15 7 7 8 4
11 12 9 4 5 9 4 5 8 4 7 7 7 4 4 4 4 5 8 7 8 10 6 7 7 9 9 17 20 18 8 9 7 6 6 13 11 18 18 8 8 9 8
10 7 5 9 12 5 7 8 7 9 9 6 5 5 5 5 5 6 7 8 9 11 8 7 7 9 9 11 21 22 10 9 8 8 7 7 18 19 20 14 8 7 7
10 7 7 9 11 6 7 8 9 10 5 5 5 5 5 4 5 6 8 8 8 11 9 7 7 6 7 12 20 23 20 16 10 10 8 8 20 19 20 13 14 13 11
9 4 6 8 8 7 9 9 11 6 6 5 6 4 5 6 6 7 8 7 8 9 8 6 7 6 6 7 19 23 22 19 9 7 12 18 21 19 16 16 17 11 7
11 8 5 8 10 6 9 13 7 6 6 7 6 5 6 6 6 6 6 6 7 9 9 7 8 7 7 8 8 11 12 15 10 12 11 14 15 13 9 10 11 6 6
10 10 10 10 12 11 4 3 3 4 5 5 5 5 5 6 7 7 7 7 9 10 9 8 9 9 9 9 14 14 12 11 12 10 8 8 8 8 6 6 5 5 5
10 12 12 12 12 9 7 4 4 3 4 6 6 5 5 5 6 7 9 15 21 24 25 25 15 9 16 19 25 24 23 22 24 7 8 9 9 10 10 10 8 5 7
Wind_Direction
355 8 4 359 359 11 10 6 281 207 139 114 117 120 149 139 144 143 143 136 148 157 143 167 154 138 128 162 153 113 98 77 152 112 67 56 66 67 58 51 61 56 56
13 14 9 8 10 3 2 0 344 253 157 131 113 124 129 122 111 126 134 150 154 146 160 158 154 166 143 159 152 129 121 103 183 124 107 130 8 50 45 52 71 62 55
7 5 7 9 8 8 358 352 332 293 150 127 111 85 83 68 94 130 134 132 130 129 130 166 142 160 147 168 170 151 144 137 198 244 134 114 215 147 20 48 58 75 67
4 7 5 7 9 2 357 3 4 14 101 139 146 159 158 160 190 134 121 111 124 123 111 150 161 157 159 163 185 160 154 128 159 115 137 63 134 167 155 27 65 73 82
356 2 2 3 3 5 6 9 20 30 17 33 41 128 129 127 113 127 140 145 147 152 167 154 150 203 169 164 183 160 173 158 145 158 145 119 57 84 130 169 148 73 49
352 358 359 4 9 11 13 16 21 25 20 18 9 319 234 136 132 132 146 153 146 164 169 162 160 231 178 183 183 178 182 181 181 178 166 173 175 183 150 119 123 140 197
357 353 4 4 8 10 12 15 18 23 15 18 19 358 304 204 193 160 162 160 160 191 173 205 160 181 217 184 168 173 188 187 181 180 197 192 185 144 125 115 115 135 279
2 358 353 350 359 4 11 14 14 16 14 16 11 9 0 309 248 190 168 184 195 190 182 197 181 181 202 171 170 171 172 177 182 175 175 167 173 171 160 156 143 82 8
351 353 350 357 351 359 360 359 8 16 11 8 14 12 1 353 303 249 195 188 193 187 183 176 184 180 188 174 171 171 170 166 169 174 158 143 146 130 148 161 152 143 154
339 344 345 348 345 344 337 347 2 1 3 4 8 4 358 350 336 309 241 209 196 173 181 180 187 181 178 174 172 160 165 157 165 165 158 144 146 133 128 128 121 130 145
299 313 320 329 333 334 354 352 357 356 2 2 2 4 356 355 349 342 307 267 205 195 188 185 181 181 175 173 173 162 163 166 163 163 167 162 155 149 138 122 98 94 111
271 282 295 303 315 328 341 346 344 350 349 336 345 2 357 352 356 346 336 310 239 210 198 183 190 184 185 174 178 174 172 173 176 176 164 169 158 161 156 138 118 105 72
280 280 285 282 287 288 306 326 336 343 337 341 350 345 0 359 345 335 328 317 267 218 200 181 193 186 186 179 179 171 173 175 180 173 168 169 159 166 153 139 126 115 90
263 274 278 265 275 285 284 303 327 338 344 353 348 345 345 346 338 324 322 319 271 215 202 204 192 188 172 174 170 166 171 171 182 169 163 169 169 169 163 152 143 128 111
274 271 268 268 261 274 282 294 296 317 334 350 334 325 319 320 318 327 317 318 299 243 210 188 185 169 178 178 171 176 167 175 174 172 165 169 166 175 170 140 157 137 133
252 261 260 258 252 248 252 266 277 295 334 324 314 308 323 327 329 336 325 313 307 276 203 208 188 185 197 189 182 173 171 173 176 182 164 162 172 180 173 154 163 160 154
256 260 250 245 238 237 232 249 248 258 300 293 291 303 311 320 316 326 326 316 299 268 239 220 187 205 199 194 184 177 170 171 179 173 168 162 165 162 171 188 177 176 178
254 257 254 248 238 234 220 236 254 257 262 277 282 286 288 300 325 325 318 314 292 259 247 228 217 211 199 202 187 175 165 167 172 176 171 169 165 164 167 174 174 173 177
258 246 251 235 235 229 227 202 260 255 288 275 273 274 263 293 323 321 312 307 306 271 241 226 213 213 205 197 191 172 166 168 169 170 170 169 168 178 176 162 167 180 180
253 262 264 231 228 243 166 198 237 220 241 246 258 258 248 255 275 281 297 292 290 280 242 235 221 215 214 198 192 179 168 169 167 163 173 174 168 179 185 165 161 175 182
254 254 241 242 234 190 176 207 221 236 237 232 239 246 260 272 257 277 277 282 288 281 247 226 227 216 206 200 197 191 183 179 173 183 183 184 184 184 189 175 171 177 167
273 242 240 246 252 202 190 219 223 234 212 220 229 247 246 252 273 269 283 279 280 277 249 229 228 217 203 204 204 202 197 183 178 188 180 176 183 186 188 174 181 169 150
280 258 230 258 253 205 204 220 238 203 201 208 234 240 255 261 260 266 277 285 285 271 251 227 228 217 203 200 211 204 198 193 189 171 171 170 178 180 185 172 181 149 151
331 335 291 262 267 236 201 220 226 188 187 211 231 235 245 262 252 257 257 260 267 267 253 232 227 218 201 198 202 202 196 191 181 161 161 168 167 168 156 159 173 156 166
321 330 321 316 297 308 272 287 254 166 213 230 241 241 240 248 266 254 257 256 255 255 265 238 225 215 211 204 200 198 193 184 175 140 138 151 155 156 158 158 146 148 151
312 306 301 299 297 308 309 296 280 197 215 251 249 241 238 240 257 273 282 265 266 267 261 252 230 222 223 206 204 201 197 183 166 142 154 165 170 173 173 177 168 173 174